Location: C�mpuri de-Sus
(45.9500°N, 22.5500°E)
Time: 12:02:40
(UTC+00:00)

Cosmos 2278 Rocket - Pass Details

Date: 05 June 2022
Orbit: 840 x 846 km, 71.0° (Epoch: 01 July)

Event Time Altitude Azimuth Distance (km) Brightness Sun altitude
Rises 21:13:34 0° 331° (NNW) 3,416 6.9 -19.4°
Reaches altitude 10° 21:16:02 10° 329° (NNW) 2,477 5.8 -19.5°
Maximum altitude 21:21:40 65° 248° (WSW) 924 2.3 -19.8°
Enters shadow 21:23:52 37° 180° (S) 1,291 2.6 -19.9°
